Theta_e
307 306 305 305 304 304 303 304 304 304 303 303 304 306 305 306 304 306 312 316 317 321 323 324 325 329 333 336 339 340 337 335 333 335 334 331 332 331 331 336 340 341 336 336 340 340 338 337 339 342 343 339 343 347
305 305 304 304 304 304 303 304 303 304 304 304 304 307 305 305 304 305 313 314 314 316 320 318 319 321 324 327 331 334 339 340 343 337 335 337 334 333 337 334 336 336 336 336 332 335 352 345 342 339 339 347 347 350
304 304 304 304 304 303 303 303 303 304 304 304 303 305 305 305 304 305 308 311 313 316 318 317 317 317 318 322 324 330 337 338 341 338 343 346 350 345 338 336 340 339 337 337 340 338 341 343 340 337 344 344 344 345
303 303 303 303 303 303 303 303 304 303 303 304 304 306 305 305 305 304 308 311 312 316 319 320 317 316 318 319 320 323 325 330 333 336 340 344 344 341 344 345 343 336 340 341 341 344 344 340 340 338 342 343 341 345
303 303 303 303 303 303 303 303 303 303 303 304 304 304 305 304 303 304 307 310 311 314 319 320 319 319 318 319 321 322 323 327 330 334 337 341 340 341 342 342 342 339 342 338 340 347 357 353 345 340 343 344 347 348
303 303 303 303 303 303 303 303 303 303 303 305 305 304 305 302 301 307 313 313 312 312 316 319 319 319 318 319 321 323 324 324 327 331 334 336 335 339 342 343 343 339 340 336 340 346 344 340 340 340 346 347 348 347
302 303 303 303 303 305 304 304 305 305 305 306 305 305 302 301 303 307 309 309 307 311 316 319 319 319 319 319 319 321 323 324 325 327 332 335 337 338 341 344 342 337 338 340 342 346 345 338 345 342 347 347 344 350
303 303 303 303 303 305 305 305 305 303 302 301 301 301 301 301 304 309 308 304 306 313 315 320 321 323 319 322 323 321 321 324 326 327 330 333 336 340 344 340 340 339 341 341 340 343 341 343 345 346 348 348 353 355
302 303 303 302 303 304 304 304 303 302 301 302 303 303 305 306 310 311 305 304 311 313 319 319 323 328 322 322 321 323 323 324 324 327 330 333 335 341 343 343 340 342 345 343 344 340 337 342 347 351 351 351 357 354
304 304 303 303 302 302 303 303 303 303 303 303 305 307 308 309 307 308 309 312 313 314 315 318 319 326 326 323 323 325 324 325 326 326 327 333 334 340 341 345 346 346 343 347 352 344 342 345 350 352 353 356 356 354
303 302 301 301 302 303 302 302 303 303 305 307 308 308 308 306 310 313 315 314 314 316 316 316 316 322 322 327 329 331 328 327 328 329 327 329 336 338 339 343 346 344 343 344 346 349 342 352 353 355 357 356 353 350
301 301 301 301 303 303 303 302 302 305 307 305 303 305 308 310 313 315 317 315 315 316 320 319 317 317 321 322 328 329 330 330 330 326 329 333 333 339 341 339 342 345 341 341 343 349 348 351 356 358 356 353 350 348
301 300 300 301 303 304 303 303 302 303 304 306 307 310 313 313 314 314 317 316 317 317 321 320 318 318 318 321 324 331 332 329 327 331 331 332 334 340 346 342 338 341 340 342 344 350 349 356 355 354 354 349 347 346
301 301 301 301 302 304 304 304 304 304 305 307 310 310 314 316 316 317 317 319 322 324 324 321 322 322 320 320 323 326 327 329 329 330 332 333 345 344 348 346 340 344 341 342 349 352 353 357 355 351 348 346 345 345
305 305 305 304 304 304 302 302 303 305 306 310 311 316 313 314 315 316 317 319 320 319 320 323 322 322 325 323 322 324 326 327 328 330 330 332 345 350 350 344 346 348 347 349 351 356 357 353 353 350 346 345 343 343
306 306 308 305 305 302 303 302 304 305 307 309 310 312 313 315 317 316 316 318 317 318 319 319 321 324 325 325 324 324 325 329 329 336 342 347 349 353 358 356 352 349 350 351 356 357 354 352 350 347 345 343 343 342
306 309 308 305 304 305 305 303 305 306 309 310 312 311 313 314 315 315 316 316 313 317 319 319 321 322 323 323 323 324 324 327 331 333 339 348 350 358 354 352 358 354 358 346 349 350 350 347 345 344 345 342 341 339
309 310 308 304 305 306 304 304 304 306 308 309 311 311 312 311 311 311 312 312 313 314 316 320 321 325 326 323 324 324 325 324 327 332 339 342 347 350 353 355 356 352 352 347 345 347 347 345 344 343 341 339 337 334
307 308 307 306 307 306 305 305 304 307 308 308 308 308 308 310 310 310 310 311 311 313 316 320 322 326 325 325 328 331 333 332 337 339 338 340 342 346 350 352 349 343 347 347 347 345 343 342 341 339 338 336 334 332
307 308 307 307 307 307 308 309 304 307 310 312 309 311 313 315 318 317 312 312 314 314 316 323 324 323 324 328 330 331 332 330 332 336 337 339 339 341 345 344 343 340 343 343 342 341 340 339 337 336 335 333 331 328
312 311 309 308 307 307 310 312 310 311 314 315 317 318 320 323 324 325 323 317 317 323 323 324 325 325 326 325 324 325 326 327 329 333 335 335 334 337 340 339 339 339 336 338 338 334 336 335 331 328 326 325 324 322
313 311 311 309 309 310 311 312 313 314 316 317 318 320 323 326 328 327 324 324 325 324 323 322 322 323 326 326 325 324 324 325 328 329 330 332 335 335 333 333 332 331 330 332 333 333 331 329 327 327 325 322 320 318
314 313 314 312 313 313 315 314 317 318 320 322 322 325 326 327 327 323 327 324 324 322 320 321 321 321 323 326 326 326 327 328 330 332 331 331 332 331 330 328 328 328 325 322 323 325 323 323 321 319 318 317 314 313
314 314 317 320 317 319 321 321 321 321 321 324 325 326 327 327 326 327 327 325 322 319 321 322 324 327 328 328 330 327 325 324 325 328 330 330 329 329 327 325 323 323 321 320 318 317 317 316 316 315 316 314 312 312
316 318 318 321 323 324 323 324 324 325 325 325 325 327 327 327 327 327 325 322 320 320 320 323 324 324 330 329 327 325 322 321 321 321 322 327 321 321 321 318 320 320 319 315 315 314 314 314 314 314 313 312 312 313
320 322 322 323 321 323 324 324 324 324 325 325 327 326 326 327 326 326 323 321 320 320 320 323 324 325 328 326 325 322 318 317 318 318 318 318 319 318 318 317 316 315 313 313 314 314 314 314 314 314 313 312 312 313
321 324 324 322 323 324 324 324 324 324 327 326 327 327 326 327 328 324 321 319 319 318 320 322 322 322 325 328 325 321 320 319 317 315 316 316 315 315 316 317 317 314 314 314 313 314 314 314 314 314 314 313 313 314
325 325 327 327 326 326 327 327 327 328 328 327 327 325 325 325 325 323 320 317 319 321 321 322 322 322 322 323 322 324 325 325 324 323 322 322 321 318 317 316 316 318 317 315 314 314 313 313 313 313 313 312 313 314
326 327 327 328 327 328 327 326 327 326 324 326 327 327 326 324 322 320 317 318 320 323 323 324 323 322 320 318 318 320 321 321 323 324 323 322 322 318 315 314 314 316 315 312 312 314 313 313 313 313 313 313 313 314
327 325 327 327 326 327 326 324 324 324 324 325 326 325 325 323 319 317 318 320 324 323 318 320 320 321 323 322 319 319 320 321 322 322 322 322 320 317 315 315 314 313 312 312 312 311 311 312 312 313 313 314 314 314
326 325 326 326 326 326 323 322 323 322 322 323 325 324 324 322 318 317 318 319 321 318 321 323 323 321 323 323 323 320 320 320 319 319 319 317 317 317 318 317 317 316 315 314 313 312 311 312 312 313 313 314 314 313
325 326 326 327 325 324 323 323 323 323 323 323 323 325 326 328 328 323 321 320 320 320 319 320 320 320 319 318 318 317 317 317 316 317 317 316 315 315 314 315 316 316 316 315 314 313 311 311 312 312 312 313 313 314
326 325 325 325 325 326 325 327 325 326 323 323 324 324 324 323 325 326 320 320 320 319 318 318 319 320 321 321 321 319 318 317 315 314 314 314 315 314 314 314 314 314 315 315 315 314 314 312 312 313 313 313 313 313
Wind_Speed
12 13 14 14 13 13 14 15 15 14 15 15 14 15 14 16 17 18 15 8 8 8 15 15 11 9 11 9 5 6 4 6 6 9 10 12 10 14 13 16 18 12 9 10 12 9 12 1 12 18 6 1 12 16
14 14 14 13 12 13 14 15 14 14 15 14 14 13 13 14 15 17 10 12 8 8 12 22 18 15 12 9 7 10 5 5 7 5 6 5 7 11 15 12 17 14 11 9 7 10 9 11 12 11 10 9 12 15
13 13 14 13 13 14 14 14 14 14 14 13 12 11 12 13 14 13 14 15 17 8 10 12 14 16 18 14 10 5 6 12 5 6 5 4 4 5 8 9 18 14 19 10 11 11 12 15 12 10 15 14 12 16
14 14 14 14 14 15 15 14 14 14 13 13 10 9 10 12 13 14 12 14 10 6 5 8 10 15 5 14 16 12 10 13 10 7 6 5 3 5 8 8 2 11 15 14 13 9 12 13 15 12 16 16 15 15
14 14 14 15 15 15 15 14 14 14 13 12 9 9 9 12 14 14 13 11 6 7 6 9 17 10 15 14 14 10 9 7 6 5 5 6 6 6 6 5 4 6 12 10 6 7 3 9 12 12 15 16 16 16
14 14 14 15 15 14 15 14 14 13 12 12 9 8 10 12 15 13 5 6 9 8 4 4 8 7 10 13 13 10 8 7 6 5 5 6 15 6 3 5 12 14 6 11 6 3 13 11 15 15 13 15 17 16
13 14 14 14 13 14 10 8 8 6 7 4 5 8 10 11 13 11 4 4 11 10 3 4 4 10 11 14 10 8 10 6 6 7 8 8 9 4 7 10 15 14 10 8 8 10 9 11 13 10 16 18 16 22
13 13 12 11 11 9 8 8 8 8 7 7 8 10 11 14 14 5 5 4 5 7 4 4 4 3 11 6 6 9 8 8 7 7 6 9 8 9 10 14 19 19 16 16 5 1 3 5 13 12 18 17 20 18
11 12 11 10 9 9 8 8 8 9 9 10 12 13 11 4 4 4 3 2 2 3 4 4 5 4 6 8 7 7 7 7 5 9 10 6 10 10 9 9 11 13 12 13 12 7 13 13 14 15 18 19 18 16
11 10 11 10 9 8 8 8 11 11 10 13 7 3 1 2 0 1 3 4 5 5 4 4 5 3 5 7 7 6 6 6 7 11 7 12 13 13 13 10 10 11 12 10 14 7 12 7 15 17 17 16 17 15
12 13 13 12 11 9 8 8 10 12 8 2 2 2 6 2 2 2 2 2 5 4 5 5 8 6 3 3 4 4 2 4 8 9 12 11 14 15 17 15 11 13 9 9 12 16 13 10 14 16 19 18 17 20
11 13 14 14 11 9 7 8 9 8 6 9 10 9 5 1 2 3 4 4 5 5 8 7 7 8 5 1 2 2 2 3 6 10 14 17 11 13 15 18 16 12 14 14 15 17 14 12 19 20 19 17 21 22
13 13 12 11 10 8 7 7 8 10 12 8 4 4 3 2 0 3 4 4 5 3 2 1 4 5 5 2 1 2 3 6 4 7 16 14 12 11 11 16 18 14 16 17 17 18 17 16 30 30 20 25 25 24
14 14 13 11 9 6 7 8 7 6 4 3 3 3 5 5 6 6 8 3 4 3 3 2 1 2 2 7 4 4 5 4 10 8 14 10 8 12 8 9 12 19 20 19 18 17 17 24 25 34 31 30 27 22
17 17 15 10 4 4 6 6 5 4 3 3 4 4 6 8 5 2 5 3 5 3 3 1 1 3 4 4 6 6 4 4 5 11 9 9 3 7 10 12 16 16 16 14 18 15 25 22 24 25 30 29 27 25
18 16 6 7 7 6 4 4 5 5 4 3 5 7 6 6 8 4 3 5 4 2 2 2 2 3 6 5 9 11 7 3 10 6 8 13 6 4 8 7 8 11 17 19 15 21 24 21 21 25 29 28 27 25
14 5 5 7 5 5 5 4 2 2 4 4 5 5 6 7 8 9 6 4 7 2 2 3 5 8 4 9 17 10 13 13 6 7 8 11 16 7 8 8 11 13 8 11 13 25 28 30 31 26 17 24 26 24
8 9 4 6 3 4 4 7 2 3 5 5 5 6 4 5 8 8 8 7 4 4 3 5 4 5 6 10 10 11 11 8 9 6 8 10 12 11 8 11 12 2 16 26 19 20 27 27 21 18 25 27 26 23
20 17 11 10 4 3 2 5 4 3 5 3 4 5 4 5 8 11 7 8 11 5 2 3 7 9 12 7 8 9 9 4 6 6 6 8 9 9 9 12 11 5 27 34 31 21 25 27 25 26 27 27 23 22
17 11 7 11 11 6 3 3 6 4 4 3 3 4 3 3 3 4 7 7 8 5 5 5 6 8 8 5 4 7 7 7 8 6 6 4 2 1 6 9 6 14 12 29 28 26 25 25 28 27 23 23 21 22
6 4 4 9 9 7 3 2 4 3 3 4 3 3 4 5 3 3 4 8 6 4 5 5 6 6 8 9 13 12 9 7 6 4 2 2 1 5 12 15 16 20 6 10 10 17 20 20 24 26 26 23 25 24
3 6 4 6 5 4 4 6 3 2 3 3 3 3 4 4 2 2 4 4 2 2 2 3 6 9 11 14 12 19 15 10 8 5 4 4 3 4 5 11 16 9 14 13 14 15 19 22 24 22 23 23 23 21
4 3 4 6 4 3 4 8 3 3 3 3 3 3 3 2 3 5 1 1 1 3 5 6 11 21 10 7 11 14 17 14 6 6 7 6 9 13 15 16 19 18 11 16 12 13 18 21 20 22 24 18 23 22
5 3 3 3 6 4 3 3 2 2 3 3 3 3 3 3 4 3 2 2 4 7 7 9 4 4 7 6 6 7 12 15 12 12 14 11 7 10 19 19 17 22 17 22 15 15 20 18 22 20 16 19 18 18
3 4 3 5 4 2 3 3 2 2 2 2 3 3 4 2 2 2 3 3 5 6 8 6 4 4 4 8 8 11 14 16 9 8 11 15 19 18 17 17 20 19 19 20 16 17 18 20 20 16 16 17 18 17
4 4 3 1 2 2 2 3 2 2 3 2 2 3 2 3 3 4 3 6 4 4 6 5 4 7 9 8 10 9 12 18 21 14 16 20 17 16 11 10 8 11 15 14 16 18 17 17 18 19 19 20 20 17
3 3 3 3 3 2 3 4 2 2 3 2 3 3 3 4 3 3 3 4 3 6 11 12 12 8 4 13 21 24 25 24 24 25 30 27 25 23 20 15 13 19 18 18 15 13 13 14 15 14 15 14 12 12
5 3 5 3 3 3 3 2 2 2 2 2 2 3 2 2 2 3 3 11 13 14 18 20 21 17 14 13 14 15 13 22 26 22 19 19 25 26 24 18 15 22 24 21 20 17 13 12 12 14 13 13 12 10
4 2 2 4 5 4 1 1 1 0 2 1 2 2 1 1 3 2 4 7 5 6 8 8 13 14 14 11 12 17 13 8 15 14 13 9 9 17 13 15 17 24 18 10 6 13 14 15 13 14 13 14 13 10
4 5 2 1 4 3 3 2 3 3 5 2 3 3 1 2 5 5 6 2 2 5 6 3 1 2 9 9 4 2 3 7 7 9 7 8 11 16 14 14 13 12 12 13 9 8 8 8 6 6 9 10 10 10
2 2 1 2 2 1 1 3 2 1 4 6 9 4 3 3 3 2 1 2 2 4 6 7 2 4 5 5 9 10 6 9 8 6 7 13 11 10 10 9 11 13 11 11 10 10 10 9 10 10 10 8 7 6
0 2 2 3 4 4 2 1 2 0 1 1 5 10 7 6 4 4 10 7 2 0 6 10 4 6 9 6 6 5 5 8 9 13 12 12 10 7 5 4 3 7 9 9 10 10 10 10 11 11 11 10 8 8
2 4 4 4 3 2 3 4 3 4 3 1 3 4 8 8 9 4 13 19 16 12 18 15 12 11 7 4 7 5 7 10 8 7 8 8 6 3 7 6 2 4 5 7 8 8 10 8 9 8 8 7 10 10
Wind_Direction
323 321 317 314 312 313 317 319 320 314 313 315 319 321 322 324 337 343 292 302 304 302 299 340 333 334 343 340 360 21 124 241 210 234 234 221 204 193 193 202 212 232 224 205 210 197 235 139 177 167 144 330 165 134
328 327 323 319 315 314 316 318 319 317 315 314 318 321 322 325 334 339 289 329 326 277 292 313 296 295 289 321 324 321 358 354 11 252 248 293 219 197 193 198 187 215 234 225 227 216 129 129 136 151 166 143 132 138
337 333 330 323 319 319 318 319 319 320 323 320 312 317 319 324 328 335 306 303 313 268 270 243 247 255 246 241 274 297 25 352 25 17 321 309 338 331 201 203 177 193 215 219 236 228 206 158 153 169 131 136 148 145
332 331 330 326 322 321 319 318 315 316 321 319 313 311 318 320 321 325 307 313 307 303 282 247 189 217 223 224 242 254 298 313 331 323 309 289 277 20 352 346 284 187 188 217 227 215 147 165 152 157 143 148 159 139
336 334 330 326 323 320 318 316 312 311 314 316 310 307 317 320 317 311 284 274 292 303 315 320 304 234 205 222 231 231 243 270 301 297 268 280 309 334 331 319 301 243 167 194 180 120 320 166 144 157 154 152 141 137
332 332 330 329 329 324 316 314 311 312 312 308 302 303 311 320 325 310 195 65 356 322 284 266 338 224 224 211 216 209 223 237 255 280 284 284 290 307 294 275 268 295 76 199 189 139 183 174 170 175 146 144 134 139
334 333 333 336 341 342 337 347 354 348 350 335 311 306 315 319 315 306 333 330 349 308 255 268 242 183 229 189 205 213 217 224 236 238 248 276 273 271 284 273 286 313 304 343 46 16 198 203 158 169 142 136 133 121
338 338 341 345 349 1 3 357 348 346 347 337 325 317 311 313 302 320 17 243 287 280 268 273 264 185 183 199 202 198 202 206 221 239 242 234 261 264 240 252 274 291 315 321 223 271 244 187 147 163 136 136 131 130
351 349 350 353 351 344 347 347 338 325 319 320 319 315 302 248 325 49 298 172 206 283 291 281 307 35 168 215 207 176 205 204 210 220 228 240 229 227 220 230 270 285 303 309 300 222 256 178 158 151 141 150 137 141
341 344 345 345 342 338 334 326 328 335 320 317 317 277 283 32 355 12 191 201 203 192 219 260 290 261 272 206 192 189 187 221 205 218 235 219 242 257 247 249 227 263 284 313 316 266 265 217 154 152 152 139 128 129
335 337 337 335 327 321 316 315 326 331 331 271 305 336 310 312 244 256 262 248 194 229 213 232 246 274 259 286 337 25 220 244 250 235 205 230 236 223 248 260 255 262 248 286 292 287 270 172 163 147 124 124 131 136
330 331 331 333 330 318 307 305 313 322 311 324 307 276 249 192 257 262 229 193 230 243 176 202 190 206 277 62 334 31 232 213 249 221 233 233 228 228 211 237 253 252 253 263 276 271 256 238 137 126 128 132 140 140
318 320 323 329 331 326 311 310 304 308 318 298 237 229 219 149 326 240 215 189 223 231 69 345 150 167 210 268 216 117 298 240 258 257 229 236 238 221 217 214 231 239 248 258 264 263 259 142 127 127 128 136 138 142
312 313 314 317 316 322 316 320 310 315 281 265 259 265 228 196 227 193 238 13 43 36 8 277 74 286 209 197 232 234 229 269 235 222 243 249 216 211 209 223 244 223 226 236 247 256 134 144 131 128 133 138 144 154
309 304 300 300 281 289 312 311 302 267 275 264 262 250 231 245 255 119 315 150 64 21 65 39 260 267 262 254 191 225 246 219 241 245 246 266 276 239 224 236 232 220 215 214 238 164 137 154 126 121 132 145 148 154
316 317 252 178 210 238 272 283 285 232 258 243 244 255 275 286 283 286 236 271 69 22 319 245 267 245 241 251 207 214 232 230 225 348 12 349 276 266 194 206 204 215 222 223 197 136 121 118 122 130 138 143 149 151
323 261 234 198 224 235 225 193 281 253 259 247 235 235 258 288 288 292 296 281 23 292 200 222 228 219 275 245 242 222 235 267 323 340 343 351 330 218 195 210 245 242 143 74 135 111 115 126 129 135 137 145 143 137
293 299 268 225 245 211 176 189 241 249 252 263 270 240 214 241 259 260 251 250 199 190 223 234 286 230 232 230 225 230 246 250 263 322 330 337 328 312 249 223 231 127 125 112 92 122 127 132 134 130 134 128 125 132
292 271 268 255 249 200 214 200 222 262 253 263 266 260 234 236 234 242 225 203 195 192 240 211 245 238 227 242 287 304 316 347 339 341 331 314 318 307 257 257 245 142 132 137 138 137 133 136 135 134 135 138 139 142
301 282 248 236 202 197 237 206 190 247 263 255 220 249 232 232 234 202 198 191 180 183 204 240 224 244 260 277 316 292 309 334 324 308 293 273 285 305 38 65 67 33 95 113 120 133 133 134 130 141 146 135 136 124
301 211 153 158 191 220 271 209 214 232 252 250 268 237 265 247 224 205 179 165 182 213 212 242 262 269 276 276 278 272 264 277 265 249 254 244 259 136 108 99 95 101 119 113 107 110 119 114 119 122 119 123 131 142
206 176 185 181 212 227 249 233 237 285 261 278 286 233 265 282 247 195 159 189 218 210 209 241 262 269 267 261 252 240 230 242 173 152 121 123 155 111 82 96 93 81 67 65 100 123 123 121 131 142 141 144 133 130
269 204 218 192 232 234 254 155 238 205 251 274 278 259 252 276 0 324 98 196 240 238 264 252 258 261 242 192 160 171 167 160 163 150 123 99 104 97 91 89 97 103 97 75 99 109 115 127 120 114 119 114 112 129
239 240 232 222 196 258 174 229 228 252 260 253 267 279 330 337 325 0 332 335 318 318 324 324 345 70 99 106 106 102 105 103 97 111 127 129 98 108 109 108 109 110 120 119 139 161 129 127 117 121 134 124 131 150
251 238 196 247 248 282 287 292 264 271 288 299 295 313 348 333 317 336 341 322 329 337 341 346 25 23 76 94 90 74 66 91 95 85 49 128 110 108 97 93 118 135 137 137 147 130 121 130 147 160 137 146 160 174
247 207 180 231 299 293 319 280 266 298 296 287 291 307 318 324 0 340 353 332 331 334 339 357 21 51 72 106 107 100 85 88 89 82 64 82 91 109 113 113 111 95 132 154 142 133 150 148 151 156 163 168 178 176
252 238 208 229 267 213 253 254 229 257 267 306 320 319 331 359 355 352 338 356 323 332 10 60 56 46 25 98 104 116 127 125 122 122 118 115 113 110 117 126 135 141 140 135 131 136 148 162 162 170 147 158 175 185
250 218 236 152 223 227 248 259 309 321 11 340 311 34 10 355 326 350 360 332 359 33 65 71 70 53 40 65 104 141 156 147 141 141 143 145 147 139 127 122 143 174 163 154 157 185 175 161 180 155 159 167 180 192
234 278 286 248 229 204 77 152 21 301 201 251 20 45 53 38 351 31 3 355 21 50 64 95 116 82 66 62 83 97 100 100 144 154 154 151 154 150 142 146 139 173 169 133 147 182 182 172 178 169 172 174 175 190
251 191 146 251 335 41 74 112 89 148 160 117 106 110 97 59 23 48 57 50 29 35 9 342 326 171 152 180 181 147 245 298 92 100 101 102 121 130 146 156 142 140 146 157 142 117 123 146 155 163 178 185 183 184
200 81 273 139 80 121 168 132 201 253 148 158 147 140 154 147 203 172 85 97 107 13 21 93 97 338 98 80 117 106 64 65 95 90 152 122 118 124 142 154 156 148 155 157 151 168 178 187 185 198 199 209 186 218
39 356 89 98 138 160 164 212 284 304 142 223 166 140 160 166 109 156 173 173 177 222 157 136 178 60 95 91 83 53 31 96 81 56 47 91 98 102 129 133 156 160 165 178 167 166 170 210 199 201 205 201 225 210
208 147 147 174 168 199 227 235 218 185 184 68 26 54 91 82 98 119 178 189 190 192 181 175 169 167 173 167 135 148 98 84 86 73 64 60 61 26 6 26 83 148 189 206 192 193 176 194 231 216 221 234 199 221